EW4363 Weather Reports


Display with metric or nautical units.
time (UTC)temp
F
wind
direction
speed
MPH
gust
MPH
rain 1hr
in
rain 24hr
in
rain mn
in
humidity
%
barometer
mb
20260905085806 89 269 0.0 2.0 0.00 0.00 0.00 50 1020.4
20260905084806 88 328 0.0 1.0 0.00 0.00 0.00 52 1020.4
20260905084305 87 321 0.0 1.0 0.00 0.00 0.00 54 1020.4
20260905083806 86 316 1.0 3.0 0.00 0.00 0.00 54 1020.3
20260905083305 86 272 0.0 1.0 0.00 0.00 0.00 54 1020.3
20260905082806 85 272 0.0 1.0 0.00 0.00 0.00 54 1020.2
20260905082307 85 269 0.0 2.0 0.00 0.00 0.00 55 1020.2
20260905081305 85 270 2.0 5.0 0.00 0.00 0.00 56 1020.2
20260905080806 84 269 2.0 3.0 0.00 0.00 0.00 57 1020.2
20260905080306 84 269 1.0 2.0 0.00 0.00 0.00 58 1020.2
20260905075806 83 278 1.0 3.0 0.00 0.00 0.00 60 1020.1
20260905075306 82 269 1.0 3.0 0.00 0.00 0.00 61 1020.1
20260905074306 81 285 1.0 3.0 0.00 0.00 0.00 64 1020.1
20260905073806 80 263 1.0 3.0 0.00 0.00 0.00 64 1020.1
20260905072807 79 265 1.0 7.0 0.00 0.00 0.00 67 1020.1
20260905072306 78 267 2.0 6.0 0.00 0.00 0.00 68 1020.1
20260905071806 78 274 1.0 5.0 0.00 0.00 0.00 69 1020.1
20260905071306 78 256 1.0 3.0 0.00 0.00 0.00 70 1020.1
20260905070805 77 269 1.0 5.0 0.00 0.00 0.00 72 1020.1
20260905070306 76 254 2.0 6.0 0.00 0.00 0.00 72 1020.0
20260905065806 76 277 2.0 6.0 0.00 0.00 0.00 72 1020.0
20260905065307 76 262 2.0 6.0 0.00 0.00 0.00 72 1019.9
20260905064805 76 271 2.0 5.0 0.00 0.00 0.00 73 1019.9
20260905064305 75 277 2.0 5.0 0.00 0.00 0.00 73 1019.9
20260905063806 75 268 3.0 5.0 0.00 0.00 0.00 74 1019.8
20260905063306 75 266 3.0 7.0 0.00 0.00 0.00 74 1019.8
20260905062806 75 279 2.0 7.0 0.00 0.00 0.00 75 1019.8
20260905062306 74 275 2.0 3.0 0.00 0.00 0.00 75 1019.8
20260905061805 75 281 0.0 2.0 0.00 0.00 0.00 76 1019.8
20260905061306 75 275 1.0 3.0 0.00 0.00 0.00 75 1019.6
20260905060805 74 266 0.0 5.0 0.00 0.00 0.00 75 1019.6
20260905060305 74 273 1.0 3.0 0.00 0.00 0.00 76 1019.6
20260905055805 74 268 1.0 3.0 0.00 0.00 0.00 76 1019.6
20260905055306 74 253 0.0 2.0 0.00 0.00 0.00 76 1019.5
20260905054305 75 253 0.0 3.0 0.00 0.00 0.00 75 1019.4
20260905053806 75 287 0.0 1.0 0.00 0.00 0.00 75 1019.3
20260905053305 75 282 0.0 3.0 0.00 0.00 0.00 75 1019.3
20260905052806 75 257 0.0 1.0 0.00 0.00 0.00 75 1019.3
20260905052306 75 290 0.0 1.0 0.00 0.00 0.00 75 1019.3
20260905051806 74 298 0.0 0.0 0.00 0.00 0.00 76 1019.2
20260905051305 74 277 0.0 1.0 0.00 0.00 0.00 77 1019.2
20260905050806 74 286 0.0 0.0 0.00 0.00 0.00 79 1019.2
20260905050305 74 286 0.0 0.0 0.00 0.00 0.00 79 1019.2
20260905045806 74 286 0.0 1.0 0.00 0.00 0.00 79 1019.1
20260905045306 74 286 0.0 0.0 0.00 0.00 0.00 78 1019.1
20260905043806 74 318 0.0 0.0 0.00 0.00 0.00 79 1019.1
20260905043306 74 318 0.0 0.0 0.00 0.00 0.00 80 1019.0
20260905042806 73 318 0.0 0.0 0.00 0.00 0.00 81 1019.0
20260905042307 73 318 0.0 0.0 0.00 0.00 0.00 81 1019.0
20260905041805 73 318 0.0 0.0 0.00 0.00 0.00 81 1018.9
20260905041306 73 318 0.0 0.0 0.00 0.00 0.00 81 1018.9
20260905040806 74 318 0.0 1.0 0.00 0.00 0.00 81 1018.9
20260905035806 74 290 0.0 0.0 0.00 0.00 0.00 80 1018.8
20260905034806 74 290 0.0 0.0 0.00 0.00 0.00 80 1018.8
20260905034306 74 290 0.0 0.0 0.00 0.00 0.00 80 1018.8
20260905033306 74 326 0.0 0.0 0.00 0.00 0.00 80 1018.8
20260905032806 74 326 0.0 0.0 0.00 0.00 0.00 80 1018.8
20260905032306 74 326 0.0 0.0 0.00 0.00 0.00 79 1018.8
20260905031807 74 326 0.0 0.0 0.00 0.00 0.00 80 1018.7
20260905031307 74 326 0.0 0.0 0.00 0.00 0.00 79 1018.7
20260905030806 74 326 0.0 0.0 0.00 0.00 0.00 79 1018.7
20260905030306 74 326 0.0 0.0 0.00 0.00 0.00 79 1018.7
20260905025306 74 326 0.0 0.0 0.00 0.00 0.00 78 1018.7
20260905024807 74 326 0.0 0.0 0.00 0.00 0.00 79 1018.7
20260905024305 74 321 0.0 0.0 0.00 0.00 0.00 79 1018.7
20260905023306 74 321 0.0 1.0 0.00 0.00 0.00 79 1018.7
20260905022306 74 296 0.0 1.0 0.00 0.00 0.00 78 1018.6
20260905021806 75 295 0.0 0.0 0.00 0.00 0.00 79 1018.6
20260905021305 75 296 0.0 0.0 0.00 0.00 0.00 79 1018.7
20260905020805 75 296 0.0 0.0 0.00 0.00 0.00 80 1018.7
20260905020306 74 296 0.0 0.0 0.00 0.00 0.00 79 1018.6
20260905015806 75 289 0.0 0.0 0.00 0.00 0.00 79 1018.7
20260905014305 75 323 0.0 0.0 0.00 0.00 0.00 80 1018.7
20260905013806 75 317 0.0 0.0 0.00 0.00 0.00 80 1018.7
20260905012806 75 317 0.0 0.0 0.00 0.00 0.00 80 1018.8
20260905012306 75 317 0.0 0.0 0.00 0.00 0.00 79 1018.8
20260905010805 76 293 0.0 0.0 0.00 0.00 0.00 79 1018.8
20260905005805 76 293 0.0 0.0 0.00 0.00 0.00 80 1018.8
20260905005306 76 293 0.0 0.0 0.00 0.00 0.00 80 1018.9
20260905003305 76 296 0.0 0.0 0.00 0.00 0.00 79 1019.0
20260905002804 77 302 0.0 0.0 0.00 0.00 0.00 79 1019.0
20260905002306 77 302 0.0 0.0 0.00 0.00 0.00 79 1019.0
20260905001805 77 302 0.0 1.0 0.00 0.00 0.00 78 1019.0
20260905001304 77 302 0.0 0.0 0.00 0.00 0.00 78 1019.0
20260905000805 77 302 0.0 0.0 0.00 0.00 0.00 78 1019.0
20260904235806 77 302 0.0 0.0 0.00 0.00 0.00 78 1019.1
20260904235306 77 302 0.0 0.0 0.00 0.00 0.00 78 1019.0
20260904234804 78 302 0.0 0.0 0.00 0.00 0.00 78 1019.1
20260904234305 78 302 0.0 0.0 0.00 0.00 0.00 77 1019.1
20260904233804 78 302 0.0 0.0 0.00 0.00 0.00 77 1019.1
20260904233305 78 302 0.0 0.0 0.00 0.00 0.00 77 1019.1
20260904232804 78 302 0.0 0.0 0.00 0.00 0.00 77 1019.1
20260904232307 78 302 0.0 1.0 0.00 0.00 0.00 76 1019.2
20260904231804 78 304 0.0 0.0 0.00 0.00 0.00 76 1019.2
20260904231305 78 304 0.0 1.0 0.00 0.00 0.00 75 1019.2
20260904230805 79 304 0.0 0.0 0.00 0.00 0.00 75 1019.3
20260904230305 79 304 0.0 0.0 0.00 0.00 0.00 75 1019.3
20260904225806 79 304 0.0 0.0 0.00 0.00 0.00 75 1019.2
20260904225306 79 304 0.0 0.0 0.00 0.00 0.00 75 1019.3
20260904224805 80 304 0.0 0.0 0.00 0.00 0.00 74 1019.3
20260904224306 80 304 0.0 0.0 0.00 0.00 0.00 74 1019.3
20260904223805 80 304 0.0 0.0 0.00 0.00 0.00 74 1019.3
20260904223304 80 304 0.0 0.0 0.00 0.00 0.00 73 1019.3
20260904222306 80 304 0.0 0.0 0.00 0.00 0.00 73 1019.3
20260904221805 80 304 0.0 0.0 0.00 0.00 0.00 73 1019.3
20260904220813 80 304 0.0 1.0 0.00 0.00 0.00 72 1019.2
20260904215805 81 260 0.0 0.0 0.00 0.00 0.00 71 1019.2
20260904214805 81 254 0.0 0.0 0.00 0.00 0.00 71 1019.1
20260904214305 81 254 0.0 1.0 0.00 0.00 0.00 71 1019.2
20260904213805 81 254 0.0 1.0 0.00 0.00 0.00 71 1019.2
20260904213305 82 254 0.0 1.0 0.00 0.00 0.00 71 1019.2
20260904212805 82 282 1.0 3.0 0.00 0.00 0.00 70 1019.2
20260904212306 82 332 0.0 2.0 0.00 0.00 0.00 70 1019.2
20260904211805 82 267 0.0 1.0 0.00 0.00 0.00 69 1019.2
20260904211305 82 328 0.0 1.0 0.00 0.00 0.00 69 1019.2
20260904210304 83 293 0.0 1.0 0.00 0.00 0.00 68 1019.3
20260904205805 83 257 0.0 2.0 0.00 0.00 0.00 69 1019.3
20260904205306 83 252 0.0 0.0 0.00 0.00 0.00 68 1019.3
20260904204805 83 252 0.0 0.0 0.00 0.00 0.00 68 1019.2
20260904203805 83 255 0.0 2.0 0.00 0.00 0.00 67 1019.2
20260904203305 83 253 0.0 1.0 0.00 0.00 0.00 66 1019.2
20260904202804 83 253 0.0 1.0 0.00 0.00 0.00 66 1019.2
20260904201305 84 317 0.0 0.0 0.00 0.00 0.00 64 1019.1
20260904200806 84 317 0.0 0.0 0.00 0.00 0.00 64 1019.1
20260904200305 84 317 0.0 0.0 0.00 0.00 0.00 63 1019.1
20260904195805 84 317 0.0 0.0 0.00 0.00 0.00 63 1019.0
20260904195306 84 317 0.0 0.0 0.00 0.00 0.00 63 1019.0
20260904194805 84 317 0.0 0.0 0.00 0.00 0.00 62 1019.0
20260904194305 85 317 0.0 0.0 0.00 0.00 0.00 62 1019.0
20260904193804 85 317 0.0 0.0 0.00 0.00 0.00 62 1018.9
20260904193305 85 317 0.0 0.0 0.00 0.00 0.00 62 1018.9
20260904192804 85 317 0.0 1.0 0.00 0.00 0.00 61 1018.8
20260904192306 85 317 0.0 1.0 0.00 0.00 0.00 61 1018.8
20260904191806 85 316 0.0 0.0 0.00 0.00 0.00 61 1018.7
20260904191305 85 316 0.0 0.0 0.00 0.00 0.00 61 1018.7
20260904190806 86 316 0.0 1.0 0.00 0.00 0.00 60 1018.7
20260904190305 86 310 0.0 0.0 0.00 0.00 0.00 60 1018.6
20260904185805 86 310 0.0 0.0 0.00 0.00 0.00 59 1018.6
20260904185306 86 310 0.0 0.0 0.00 0.00 0.00 59 1018.5
20260904184805 87 310 0.0 0.0 0.00 0.00 0.00 59 1018.4
20260904184306 87 310 0.0 2.0 0.00 0.00 0.00 58 1018.3
20260904183805 87 324 1.0 2.0 0.00 0.00 0.00 58 1018.2
20260904183305 87 325 0.0 2.0 0.00 0.00 0.00 58 1018.1
20260904182805 87 319 1.0 3.0 0.00 0.00 0.00 57 1018.0
20260904182306 88 324 1.0 3.0 0.00 0.00 0.00 57 1018.0
20260904181305 88 313 0.0 3.0 0.00 0.00 0.00 56 1017.9
20260904180806 89 320 1.0 3.0 0.00 0.00 0.00 56 1017.8
20260904175805 90 336 0.0 3.0 0.00 0.00 0.00 54 1017.5
20260904175306 90 318 2.0 3.0 0.00 0.00 0.00 53 1017.6
20260904174805 91 316 0.0 3.0 0.00 0.00 0.00 52 1017.6
20260904174306 91 320 2.0 3.0 0.00 0.00 0.00 51 1017.5
20260904173805 92 315 1.0 2.0 0.00 0.00 0.00 50 1017.4
20260904173305 92 306 0.0 2.0 0.00 0.00 0.00 49 1017.3
20260904172805 93 321 2.0 5.0 0.00 0.00 0.00 48 1017.2
20260904172306 93 313 2.0 3.0 0.00 0.00 0.00 48 1017.1
20260904171805 94 323 1.0 3.0 0.00 0.00 0.00 47 1017.1
20260904171305 94 304 1.0 6.0 0.00 0.00 0.00 47 1017.1
20260904170805 94 266 1.0 5.0 0.00 0.00 0.00 46 1017.0
20260904165805 95 316 3.0 6.0 0.00 0.00 0.00 45 1016.8
20260904164805 96 327 1.0 3.0 0.00 0.00 0.00 44 1016.7
20260904163806 97 308 1.0 3.0 0.00 0.00 0.00 43 1016.6
20260904163305 97 328 1.0 3.0 0.00 0.00 0.00 43 1016.6
20260904162806 96 326 1.0 3.0 0.00 0.00 0.00 44 1016.6
20260904162306 96 256 1.0 5.0 0.00 0.00 0.00 43 1016.6
20260904161805 97 255 2.0 3.0 0.00 0.00 0.00 44 1016.7
20260904161306 96 328 1.0 5.0 0.00 0.00 0.00 45 1016.7
20260904160805 96 308 1.0 3.0 0.00 0.00 0.00 45 1016.7
20260904160305 96 316 2.0 7.0 0.00 0.00 0.00 45 1016.7
20260904155805 96 298 1.0 7.0 0.00 0.00 0.00 46 1016.7
20260904155307 96 324 3.0 6.0 0.00 0.00 0.00 47 1016.7
20260904154805 96 303 2.0 5.0 0.00 0.00 0.00 48 1016.7
20260904154306 96 320 2.0 7.0 0.00 0.00 0.00 48 1016.7
20260904153305 97 317 2.0 8.0 0.00 0.00 0.00 47 1016.7
20260904152306 97 323 2.0 7.0 0.00 0.00 0.00 47 1016.7
20260904151806 97 307 2.0 8.0 0.00 0.00 0.00 47 1016.7
20260904151305 98 318 3.0 6.0 0.00 0.00 0.00 46 1016.6
20260904150806 98 310 5.0 7.0 0.00 0.00 0.00 46 1016.6
20260904150306 98 320 3.0 7.0 0.00 0.00 0.00 45 1016.5
20260904145306 98 322 2.0 5.0 0.00 0.00 0.00 45 1016.5
20260904144805 99 319 3.0 7.0 0.00 0.00 0.00 45 1016.5
20260904144305 99 318 3.0 7.0 0.00 0.00 0.00 44 1016.5
20260904143805 99 301 3.0 10.0 0.00 0.00 0.00 43 1016.5
20260904143305 99 318 3.0 8.0 0.00 0.00 0.00 43 1016.5
20260904141805 100 321 3.0 7.0 0.00 0.00 0.00 44 1016.4
20260904140805 100 314 2.0 6.0 0.00 0.00 0.00 43 1016.4
20260904140305 100 318 2.0 6.0 0.00 0.00 0.00 43 1016.5
20260904135805 100 313 3.0 6.0 0.00 0.00 0.00 42 1016.5
20260904135306 101 318 1.0 7.0 0.00 0.00 0.00 42 1016.4
20260904134305 101 313 3.0 6.0 0.00 0.00 0.00 40 1016.5
20260904133805 101 320 2.0 5.0 0.00 0.00 0.00 40 1016.5
20260904133305 101 314 2.0 7.0 0.00 0.00 0.00 40 1016.6
20260904132806 101 319 3.0 7.0 0.00 0.00 0.00 40 1016.5
20260904132306 100 315 2.0 7.0 0.00 0.00 0.00 39 1016.6
20260904131805 100 313 2.0 8.0 0.00 0.00 0.00 41 1016.7
20260904131305 100 317 4.0 8.0 0.00 0.00 0.00 40 1016.7
20260904130805 100 312 2.0 7.0 0.00 0.00 0.00 41 1016.7
20260904130305 100 318 3.0 6.0 0.00 0.00 0.00 41 1016.7
20260904125805 101 320 2.0 6.0 0.00 0.00 0.00 41 1016.8
20260904124306 100 320 2.0 6.0 0.00 0.00 0.00 42 1016.9
20260904123805 100 317 2.0 6.0 0.00 0.00 0.00 41 1016.9
20260904123305 100 315 5.0 8.0 0.00 0.00 0.00 40 1017.0
20260904122805 100 313 3.0 6.0 0.00 0.00 0.00 40 1017.0
20260904122306 100 320 2.0 6.0 0.00 0.00 0.00 40 1017.0
20260904121806 100 323 2.0 8.0 0.00 0.00 0.00 40 1017.1
20260904121306 100 318 2.0 7.0 0.00 0.00 0.00 38 1017.1
20260904120805 100 320 3.0 6.0 0.00 0.00 0.00 38 1017.1
20260904120305 100 333 2.0 3.0 0.00 0.00 0.00 37 1017.2
20260904115805 100 271 2.0 6.0 0.00 0.00 0.00 37 1017.3
20260904115307 100 309 1.0 3.0 0.00 0.00 0.00 36 1017.4
20260904114305 100 326 2.0 6.0 0.00 0.00 0.00 36 1017.5
20260904113805 99 326 1.0 5.0 0.00 0.00 0.00 36 1017.6
20260904113305 99 317 1.0 7.0 0.00 0.00 0.00 37 1017.6
20260904112805 99 323 3.0 6.0 0.00 0.00 0.00 36 1017.6
20260904111805 99 329 0.0 2.0 0.00 0.00 0.00 38 1017.7
20260904110805 98 332 0.0 3.0 0.00 0.00 0.00 40 1017.8
20260904110305 97 329 0.0 5.0 0.00 0.00 0.00 42 1017.9
20260904105306 96 305 0.0 3.0 0.00 0.00 0.00 44 1018.1
20260904104806 96 286 1.0 2.0 0.00 0.00 0.00 44 1018.2
20260904104306 96 284 0.0 1.0 0.00 0.00 0.00 45 1018.3
20260904103305 95 321 1.0 2.0 0.00 0.00 0.00 46 1018.4
20260904102805 95 284 0.0 3.0 0.00 0.00 0.00 46 1018.4
20260904101805 95 322 1.0 3.0 0.00 0.00 0.00 46 1018.5
20260904101306 94 329 0.0 0.0 0.00 0.00 0.00 47 1018.6
20260904100805 94 329 0.0 2.0 0.00 0.00 0.00 47 1018.6
20260904100306 94 320 0.0 1.0 0.00 0.00 0.00 48 1018.7
20260904095806 93 317 1.0 3.0 0.00 0.00 0.00 50 1018.8
20260904095306 92 322 0.0 1.0 0.00 0.00 0.00 51 1018.9
20260904094305 90 335 0.0 3.0 0.00 0.00 0.00 53 1018.9
20260904093805 90 327 0.0 2.0 0.00 0.00 0.00 53 1018.9
20260904093305 89 323 1.0 3.0 0.00 0.00 0.00 54 1018.9
20260904092806 88 284 0.0 1.0 0.00 0.00 0.00 55 1019.0
20260904092306 88 284 0.0 2.0 0.00 0.00 0.00 56 1019.0
20260904091805 88 286 1.0 3.0 0.00 0.00 0.00 55 1019.0
20260904091305 87 334 0.0 2.0 0.00 0.00 0.00 56 1019.0
20260904090805 86 328 0.0 2.0 0.00 0.00 0.00 58 1019.0